Location: Cactus School
(34.5700°N, 118.0931°W)
Time: 07:41:40
(UTC-07:00)

Vanguard 1 Rocket - Pass Details

Date: 18 April 2024
Orbit: 650 x 4220 km, 34.3° (Epoch: 22 May)

Event Time Altitude Azimuth Distance (km) Brightness Sun altitude
Exits shadow 03:29:09 25° 187° (S) 5,687 11.0 -31.0°
Drops below altitude 10° 03:40:27 10° 164° (SSE) 7,339 11.7 -29.3°
Sets 03:47:54 0° 155° (SSE) 8,453 12.2 -28.1°
